EHI
26 27 25 15 6 3 3 3 4 3 1 0 0 0 0 0 0 0 0 1 3 3 2 2 2 1 0 0 0 1 0 1 2 2 2 1 0 0 0 0 1 1 2 5 6 5 4 4 4
24 22 18 11 5 3 3 3 3 2 1 0 0 0 0 0 0 0 1 2 3 2 1 1 1 1 1 1 1 1 1 0 1 1 2 2 0 0 0 0 0 1 2 4 5 5 5 6 6
24 18 12 7 4 3 3 2 1 1 0 0 0 0 0 0 0 0 1 2 2 2 1 2 3 3 2 2 2 2 2 1 1 1 3 3 1 0 0 0 1 1 3 3 4 4 5 7 7
19 14 8 5 3 3 2 1 0 0 0 0 0 0 0 0 0 0 0 1 2 2 2 3 4 4 3 3 3 3 3 3 2 3 3 3 1 0 0 0 1 3 3 3 3 3 4 6 7
12 9 5 3 3 1 1 0 0 0 0 0 0 0 0 0 0 0 0 0 1 3 3 3 5 4 3 3 3 3 3 3 3 3 3 2 1 0 0 0 1 3 4 4 3 3 4 5 6
7 5 3 3 2 1 0 0 0 0 0 0 0 0 0 0 0 0 0 0 1 2 3 3 5 5 4 3 3 3 2 2 2 2 3 3 1 0 0 0 1 3 4 3 3 3 4 5 5
5 3 1 2 2 1 0 0 0 0 0 0 0 0 0 1 1 1 0 0 1 2 3 3 3 3 3 2 2 1 1 1 0 1 2 3 2 1 0 1 2 3 3 3 3 3 3 3 3
2 1 0 1 2 2 1 0 0 0 0 0 0 0 0 1 1 1 1 0 1 2 2 1 1 1 1 1 1 1 1 0 0 0 1 2 2 1 1 2 3 3 3 3 3 3 2 2 2
1 0 0 0 1 1 1 0 0 0 0 0 0 2 2 1 1 2 2 1 0 1 1 0 0 0 0 1 1 1 1 0 0 0 0 1 1 1 1 2 2 2 2 2 2 2 1 1 2
0 0 0 0 0 0 0 0 0 0 0 0 1 3 4 1 1 2 2 1 0 0 0 0 0 0 1 2 2 1 1 1 0 0 0 0 0 0 0 1 2 1 1 1 1 1 0 1 2
0 0 0 0 0 0 0 0 0 0 0 0 1 3 3 1 0 1 1 0 0 0 0 0 1 1 2 3 2 1 1 1 1 0 0 0 0 0 1 2 2 1 0 0 0 0 0 0 1
0 0 0 0 0 0 0 0 0 0 0 0 0 1 2 2 1 0 0 0 0 0 0 0 0 0 1 2 2 1 1 2 1 0 1 1 1 0 1 2 2 1 0 0 0 0 0 0 0
0 0 0 0 0 0 0 0 0 0 0 0 0 1 3 3 3 2 1 1 1 1 1 0 0 0 0 1 1 0 1 1 0 0 1 2 2 1 0 1 1 1 0 0 0 0 0 0 0
0 0 0 0 0 0 0 0 0 0 0 0 0 1 3 4 5 4 3 2 2 2 2 1 0 0 0 0 0 0 0 0 1 1 0 1 1 1 0 0 0 0 0 1 1 1 0 0 0
0 0 0 0 0 0 0 0 0 0 0 1 1 1 3 5 6 5 3 2 2 2 2 2 1 0 0 0 1 1 1 1 2 1 0 0 0 0 0 0 0 0 0 1 2 1 0 0 0
0 1 1 1 1 0 0 0 0 0 1 2 3 3 4 6 6 5 2 1 0 1 2 2 1 1 1 1 2 2 1 1 2 2 0 0 0 0 1 1 0 0 0 1 1 0 0 0 0
1 1 2 2 2 1 0 1 1 1 1 2 4 5 5 5 6 5 3 1 0 0 1 2 2 3 3 3 2 1 1 1 2 2 1 0 0 0 1 2 1 0 0 0 0 0 0 0 0
0 1 1 2 2 1 0 1 2 1 0 1 3 4 4 3 4 5 4 3 2 1 1 2 3 3 3 3 2 0 0 0 1 1 2 1 1 1 2 2 1 1 1 0 0 0 0 0 0
0 0 0 1 1 0 0 1 1 0 0 1 2 4 4 3 2 4 6 6 4 2 3 3 3 2 2 3 2 1 1 1 0 1 2 2 2 2 3 3 3 2 2 1 0 0 0 0 0
0 0 0 0 0 0 0 0 0 0 0 1 3 3 4 3 2 4 6 6 5 3 4 4 3 1 1 2 2 2 2 2 1 0 1 3 3 3 3 3 2 2 2 1 0 0 0 0 0
0 0 0 0 0 0 0 0 0 0 0 2 3 3 3 3 3 4 5 6 6 5 4 4 3 3 2 1 1 2 2 2 1 0 1 2 3 3 3 1 1 1 1 0 0 0 0 0 0
0 0 0 0 0 0 0 0 0 0 0 2 3 3 4 4 4 4 5 6 8 8 6 4 3 3 2 1 0 1 1 1 0 0 1 2 3 3 2 1 0 0 0 0 0 0 0 0 0
0 0 0 0 0 0 0 0 0 0 1 2 3 3 3 3 4 6 6 7 9 11 9 6 4 3 3 1 1 0 0 0 0 0 1 2 3 3 1 0 0 0 0 0 0 0 0 0 0
0 0 0 0 0 0 0 0 0 0 1 2 2 1 1 3 4 6 8 10 11 12 11 9 6 4 3 3 2 1 0 0 0 0 1 2 3 2 1 0 0 0 0 0 0 0 0 0 0
0 0 0 0 0 0 0 0 0 0 0 1 1 1 1 2 4 6 8 10 12 12 12 10 8 5 4 3 3 2 1 1 1 1 0 1 2 2 1 0 0 0 0 0 0 0 0 0 0
0 0 0 0 0 0 0 0 0 0 0 0 0 0 0 2 5 6 6 7 10 11 10 10 8 6 5 4 3 3 3 2 2 2 1 0 1 2 2 1 0 0 0 0 0 0 0 0 0
0 0 0 0 0 0 0 0 0 0 0 0 0 1 1 3 5 6 5 5 6 7 8 9 8 7 6 5 4 3 3 3 3 2 1 0 0 1 1 1 0 0 0 0 0 0 0 0 0
0 0 0 0 0 0 0 0 0 0 0 0 0 2 3 4 5 5 4 3 4 4 5 7 7 7 7 6 5 5 4 4 3 3 2 1 0 0 0 0 0 0 0 0 0 0 0 0 0
0 0 0 0 0 0 0 0 0 0 0 0 0 1 3 3 4 5 4 3 3 3 4 5 6 6 6 6 7 7 6 6 5 4 3 2 1 1 0 0 0 0 0 0 0 0 0 0 0
0 0 0 0 0 0 0 0 0 0 0 0 0 0 1 3 4 5 4 3 3 3 4 4 5 6 6 6 7 8 8 7 6 5 4 3 2 2 1 0 0 0 0 0 0 0 0 0 0
Wind_Speed
10 11 7 2 2 1 5 5 7 6 7 8 8 9 11 12 8 7 3 4 7 8 9 9 10 10 10 11 10 10 10 10 10 11 11 11 11 11 11 12 12 12 12 12 12 11 11 11 11
10 7 4 3 2 2 5 6 8 8 6 5 7 10 12 11 10 8 4 4 7 9 9 9 9 10 10 10 10 10 10 10 10 11 11 11 11 11 11 12 13 13 13 12 12 12 12 12 11
12 8 4 2 2 5 5 6 7 8 6 5 7 10 9 7 9 6 4 5 8 9 10 9 10 10 10 10 10 10 10 11 11 11 11 11 11 11 12 12 13 13 12 12 12 12 12 12 12
6 4 3 0 6 7 7 6 6 7 6 6 7 9 10 8 6 7 6 6 8 9 10 9 10 10 10 10 11 11 11 11 11 11 11 11 11 11 12 13 13 13 12 12 12 12 12 12 11
4 3 1 2 6 7 7 7 5 6 6 7 10 11 10 9 9 9 6 6 7 7 9 10 10 10 10 11 11 11 10 10 11 11 11 11 11 12 12 13 13 13 13 12 12 12 12 12 11
3 2 0 3 7 6 6 5 5 8 7 7 8 10 8 8 8 6 6 5 6 7 8 10 10 10 10 10 10 9 9 9 10 10 11 11 11 12 12 13 13 13 13 13 13 12 12 12 11
2 1 1 4 5 5 5 5 5 6 6 6 5 8 7 8 6 5 5 5 6 6 6 8 9 9 10 9 8 8 8 8 9 9 10 10 11 11 12 12 12 12 12 12 12 12 11 11 10
3 1 2 3 5 5 5 5 5 6 7 5 4 7 7 8 6 6 5 5 4 5 5 6 7 7 7 7 7 7 7 6 7 8 8 9 10 10 11 11 12 12 12 11 11 10 10 10 10
2 1 2 3 4 4 4 5 6 5 7 7 8 10 11 10 7 6 5 4 3 4 4 5 5 5 5 6 7 6 5 4 4 5 6 5 4 5 7 11 12 11 11 10 9 8 8 9 9
0 1 3 4 4 4 4 4 4 5 6 7 9 11 11 9 7 6 5 5 4 4 4 4 4 5 5 5 5 3 3 3 2 3 3 3 3 4 6 9 10 10 9 8 7 8 7 5 3
1 1 3 4 4 4 4 4 4 4 5 7 8 10 9 8 6 5 5 6 5 4 4 4 4 4 5 3 3 2 2 1 2 2 3 3 3 4 4 3 4 4 4 2 3 3 3 4 3
2 2 3 4 4 3 3 4 4 4 6 8 9 9 7 7 6 5 5 6 5 5 4 4 4 4 5 4 2 2 2 2 2 2 3 3 2 2 2 2 2 2 2 2 2 2 4 5 5
1 3 4 4 2 3 3 3 3 4 6 8 9 9 6 5 5 5 5 6 5 5 4 4 4 4 5 4 2 3 2 2 3 2 2 3 3 3 2 2 2 3 2 2 3 4 5 5 5
2 3 3 3 3 2 3 2 2 4 6 7 7 6 6 5 5 5 5 5 4 5 5 3 4 5 4 3 3 3 2 2 2 2 2 4 3 3 3 3 3 3 3 3 3 4 4 4 4
2 3 4 3 4 3 2 1 2 5 6 6 6 6 6 5 5 4 4 4 4 4 5 4 3 4 3 4 3 3 2 3 2 2 3 3 3 3 3 3 3 3 3 4 4 4 3 3 4
6 5 4 4 3 3 3 2 4 7 6 5 4 6 5 5 5 4 4 4 3 4 4 4 4 3 3 3 3 3 3 3 3 3 3 3 3 5 3 3 3 3 3 3 3 3 3 3 3
6 5 4 5 5 3 3 1 5 6 6 6 5 6 5 5 4 4 4 3 4 4 4 4 4 3 4 4 3 3 3 3 2 2 2 3 4 4 3 2 2 3 2 2 2 3 3 3 2
4 4 3 4 4 3 3 2 4 5 6 6 6 6 5 5 4 4 4 4 4 4 4 4 4 4 4 3 3 3 3 2 2 2 2 3 3 4 3 2 3 3 2 2 2 3 2 1 1
5 4 2 1 3 2 3 3 4 6 5 5 6 6 6 6 6 6 4 4 4 4 4 4 3 3 3 2 2 2 2 2 2 2 3 3 3 3 2 2 2 2 2 1 2 2 1 1 1
7 5 2 2 2 2 3 3 4 5 5 4 4 5 7 7 6 6 4 4 4 3 3 3 3 3 3 2 2 2 2 1 1 1 2 2 2 2 2 2 2 2 2 2 2 1 1 0 0
6 3 2 3 2 5 5 4 5 7 7 5 3 3 5 7 7 6 5 4 3 3 3 2 3 3 3 3 2 2 2 1 1 1 1 2 2 2 1 1 2 2 2 2 1 1 1 0 1
5 2 3 5 5 4 5 3 5 8 8 7 6 4 4 6 6 5 5 4 3 3 2 2 2 2 3 3 3 2 2 1 1 1 1 1 1 1 1 1 1 2 2 1 1 1 1 1 1
5 4 6 8 8 7 8 5 4 8 8 8 7 6 5 6 6 5 5 4 4 3 2 2 2 2 2 3 3 2 1 1 1 1 1 1 1 1 1 1 1 1 1 1 1 1 1 1 0
6 8 9 9 7 8 8 5 2 4 6 8 8 7 5 6 6 5 5 4 3 3 3 2 2 2 2 2 3 2 2 1 1 1 1 0 0 0 1 1 0 0 1 1 1 1 1 0 0
6 6 3 4 5 4 2 2 2 5 5 6 7 7 6 6 6 5 5 4 3 3 3 2 2 2 2 2 2 2 2 2 1 1 1 1 0 0 0 0 0 0 0 1 1 0 0 1 1
6 7 4 4 3 2 2 2 4 6 7 6 6 6 5 5 6 6 5 4 4 3 3 3 3 2 2 2 2 2 2 1 1 1 1 1 1 1 1 1 1 0 0 0 1 0 1 1 1
6 5 6 6 8 6 2 3 5 6 6 6 5 5 5 5 5 5 5 4 4 4 3 3 3 3 3 3 2 2 2 1 1 1 1 1 1 1 1 2 1 1 1 0 0 0 1 1 0
7 6 4 4 5 5 2 1 3 5 4 4 4 4 4 4 4 5 5 4 3 3 3 3 3 4 4 3 3 2 2 2 1 1 1 1 1 1 1 1 1 1 1 1 1 0 1 1 0
5 5 4 3 4 4 3 1 2 4 3 3 3 4 4 3 3 3 4 4 3 3 3 3 3 3 3 3 3 2 2 2 2 1 1 1 0 0 1 1 1 1 1 1 1 1 1 1 1
4 5 5 4 5 4 3 1 3 3 3 3 3 4 3 3 3 3 3 3 3 2 2 2 2 2 2 2 2 2 2 2 2 2 1 1 1 1 1 2 1 1 0 0 1 1 1 1 1
Wind_Direction
266 250 244 254 258 215 70 69 76 58 62 59 51 61 66 51 50 83 109 77 88 90 87 72 57 53 51 52 56 58 58 60 61 61 60 62 62 61 59 58 64 75 78 77 77 76 76 76 78
276 270 260 238 243 87 78 78 76 67 70 84 71 66 72 64 72 92 101 83 91 90 86 75 64 59 57 56 56 60 61 62 63 62 63 66 66 66 65 64 66 73 76 77 77 77 76 76 77
266 267 263 261 27 68 85 82 88 83 64 69 79 66 55 65 73 91 105 104 92 91 91 84 73 67 63 61 60 63 66 65 65 64 64 68 69 69 69 69 70 74 77 79 78 77 76 75 75
266 258 240 27 58 69 91 99 105 100 76 63 80 78 69 61 76 98 107 99 94 96 98 95 84 75 70 66 65 68 67 67 66 66 66 67 69 71 70 71 70 72 76 77 78 79 78 75 74
245 253 244 85 74 76 81 87 91 90 77 66 78 90 87 81 93 102 102 93 94 94 101 105 98 88 80 73 70 69 70 71 70 69 69 70 70 72 74 73 71 72 75 76 77 80 80 78 74
271 261 310 84 86 78 77 80 80 79 80 84 95 99 96 106 99 102 105 98 99 100 105 115 115 106 95 86 79 74 73 74 76 75 74 75 75 75 76 76 77 77 77 78 77 76 78 77 75
282 310 48 88 96 85 74 73 76 86 79 68 84 99 109 109 111 116 105 102 104 106 114 127 133 126 112 102 94 87 83 80 84 87 83 82 80 78 76 77 80 80 81 82 84 82 79 77 75
306 323 70 79 96 86 85 82 75 80 82 71 59 97 125 127 134 126 109 98 108 116 119 119 128 130 131 123 114 108 102 96 96 99 96 93 90 85 83 80 79 81 81 83 84 86 88 87 84
279 339 54 71 93 101 101 95 87 80 95 91 72 85 114 128 135 125 119 114 98 95 100 104 112 116 122 127 126 133 128 125 123 123 121 107 93 93 87 89 87 85 82 82 83 84 98 100 91
162 46 60 74 82 101 98 92 105 100 95 97 96 100 118 133 134 132 125 109 94 86 84 91 95 106 105 103 120 127 117 127 133 123 128 114 99 94 96 100 100 97 91 85 78 76 96 100 95
104 84 69 75 80 94 97 87 83 95 91 103 114 120 129 135 131 129 118 111 106 94 82 85 84 95 101 99 107 101 99 100 84 92 104 101 104 109 106 110 109 105 104 86 75 67 77 88 87
107 87 73 70 73 82 82 83 73 70 87 102 114 123 128 131 126 121 111 114 111 100 85 81 87 85 91 90 93 95 92 85 70 60 85 96 89 95 102 105 109 101 81 71 68 60 63 62 72
123 116 103 100 100 109 102 93 86 87 94 104 113 120 121 122 124 119 118 114 119 112 96 74 75 79 87 87 77 92 88 88 87 59 76 90 93 96 95 92 88 83 71 66 59 62 59 54 49
130 126 128 139 136 133 123 122 145 122 120 123 124 124 125 109 95 97 91 97 100 108 107 85 78 77 79 92 87 77 84 87 86 65 70 81 85 90 85 79 72 75 71 68 70 72 66 61 57
191 181 168 170 173 165 151 161 176 139 139 132 131 129 119 115 115 108 102 103 107 113 113 103 83 86 79 80 78 78 71 76 71 56 59 75 85 88 79 77 75 72 70 70 70 70 67 72 67
215 211 194 170 179 165 199 203 148 139 139 135 141 133 128 119 117 108 107 106 104 105 107 110 97 91 86 76 72 77 70 65 62 53 46 57 74 85 77 75 72 75 69 70 73 74 63 64 63
220 221 195 162 172 177 203 155 131 142 152 151 154 141 138 136 123 110 105 101 94 94 102 107 103 98 89 85 83 77 80 73 67 56 43 46 51 73 80 79 82 78 69 70 79 79 81 80 78
264 252 210 168 155 182 198 199 153 166 166 162 166 156 151 142 137 124 108 96 89 87 92 87 97 97 87 76 73 71 72 74 71 70 71 63 50 65 74 85 83 84 76 66 68 78 85 102 113
296 286 292 113 134 204 218 213 175 170 170 174 168 161 152 141 130 116 114 105 99 86 86 87 77 92 91 79 75 77 71 68 65 55 64 68 60 67 68 76 80 84 98 110 102 97 99 128 139
280 277 272 143 137 248 220 223 185 165 164 164 165 159 151 142 131 125 122 115 109 100 90 97 94 87 100 102 101 110 114 107 90 58 57 60 61 65 70 79 91 86 87 86 91 100 90 313 256
267 286 323 313 276 244 232 225 198 159 149 146 151 148 141 142 139 140 138 124 127 122 115 105 102 100 101 109 97 84 80 88 88 92 68 52 58 70 72 76 96 123 122 125 146 148 138 250 307
289 348 312 283 269 248 225 241 196 167 157 159 162 160 143 133 132 134 131 133 134 123 118 118 111 110 116 113 104 106 111 115 132 128 123 107 85 76 69 81 92 104 106 127 178 139 145 135 302
299 309 274 267 270 272 250 244 199 169 165 161 160 160 152 139 137 136 135 137 134 121 108 107 111 99 104 122 119 125 108 125 107 89 117 132 123 98 85 75 63 111 129 153 138 96 100 142 172
283 277 260 245 253 256 242 231 188 162 166 156 151 151 154 144 136 132 128 126 125 126 128 118 120 120 106 117 133 134 134 140 111 100 99 118 79 110 132 153 154 81 110 112 108 120 142 211 243
262 281 274 228 216 233 210 209 125 107 101 122 140 147 151 144 141 139 135 137 134 134 145 151 139 134 141 145 144 153 161 174 167 149 155 175 182 180 216 77 139 321 80 103 116 108 181 234 231
254 260 272 290 283 278 221 176 112 99 96 100 123 131 134 136 138 141 144 146 146 150 158 166 158 157 159 168 170 177 168 156 168 172 170 183 184 187 181 177 203 201 85 94 113 136 232 266 209
267 263 281 290 291 281 213 138 127 119 117 113 123 132 136 135 136 143 148 150 153 159 163 174 172 167 171 185 191 189 167 152 164 188 162 162 189 203 173 194 205 166 133 97 87 262 286 308 338
257 284 282 269 286 284 262 186 131 132 122 121 136 141 140 139 141 146 149 152 158 157 166 175 185 177 175 184 193 185 178 173 178 172 167 161 195 197 187 196 201 179 173 170 149 304 295 296 228
232 254 266 277 272 285 293 35 69 117 119 133 137 131 130 133 138 137 139 146 148 146 155 171 182 180 171 184 188 190 181 173 169 168 188 180 153 180 171 219 187 164 202 188 144 219 265 289 273
243 257 267 269 277 284 288 279 97 112 125 132 132 127 122 124 123 119 129 136 144 151 152 163 170 171 176 188 184 186 172 174 173 171 177 202 213 241 210 190 199 176 189 197 173 224 256 267 292